, AK

(GMT )
Selawik

Weather History for PASK - January, 2013

Change the Weather History Date:

Wednesday, January 2, 2013

  Actual Average Record
Temperature  
Mean Temperature 20 °F -  
Max Temperature 24 °F 0 °F 32 °F (2005)
Min Temperature 15 °F -13 °F -45 °F (2000)
Degree Days  
Heating Degree Days 46    
Moisture  
Dew Point 13 °F    
Average Humidity 81    
Maximum Humidity 93    
Minimum Humidity 73    
Precipitation  
Precipitation 0.00 in - - ()
Sea Level Pressure  
Sea Level Pressure 29.29 in    
Wind  
Wind Speed 15 mph (ENE)    
Max Wind Speed 18 mph    
Max Gust Speed 22 mph    
Visibility 10 miles    
Events      
Averages and records for this station are not official NWS values.
T = Trace of Precipitation, MM = Missing Value Source: NWS Daily Summary

Daily Weather History Graph

Daily Weather History Graph

Search for Another Location

Airport or City:

Trip Planner

Search our weather history database for the weather conditions in past years. The results will help you decide how hot, cold, wet, or windy it might be!

Date:

Astronomy

Jan. 02, 2013 Rise Set
Actual Time 12:20 PM AKST 3:08 PM AKST
Civil Twilight 10:38 AM AKST 4:50 PM AKST
Nautical Twilight 9:19 AM AKST 6:09 PM AKST
Astronomical Twilight 8:13 AM AKST 7:15 PM AKST
Moon No Moon Rise 11:58 AM AKST (1/2)
Length of Visible Light 6h 12m
Length of Day
2h 48m
Waning Gibbous, 74% of the Moon is Illuminated
Jan 2
Waning Gibbous
Jan 4
Last Quarter
Jan 11
New
Jan 18
First Quarter
Jan 26
Full

Hourly Weather History & Observations

Time (AKST) Temp. Windchill Dew Point Humidity Pressure Visibility Wind Dir Wind Speed Gust Speed Precip Events Conditions
12:16 AM 24.8 °F 12.4 °F 17.6 °F 74% 29.21 in 10.0 mi East 15.0 mph - N/A   Overcast
12:36 AM 23.0 °F 10.6 °F 17.6 °F 80% 29.21 in 10.0 mi ENE 13.8 mph - N/A   Overcast
12:56 AM 21.2 °F 8.3 °F 15.8 °F 80% 29.22 in 10.0 mi ENE 13.8 mph - N/A   Mostly Cloudy
1:16 AM 21.2 °F 8.3 °F 15.8 °F 80% 29.22 in 10.0 mi ENE 13.8 mph - N/A   Mostly Cloudy
1:36 AM 21.2 °F 7.8 °F 15.8 °F 80% 29.22 in 10.0 mi ENE 15.0 mph - N/A   Overcast
1:56 AM 19.4 °F 5.5 °F 14.0 °F 80% 29.22 in 10.0 mi ENE 15.0 mph - N/A   Overcast
2:16 AM 19.4 °F 5.5 °F 14.0 °F 80% 29.22 in 10.0 mi ENE 15.0 mph - N/A   Overcast
2:36 AM 19.4 °F 5.5 °F 14.0 °F 80% 29.22 in 10.0 mi ENE 15.0 mph - N/A   Overcast
2:56 AM 19.4 °F 5.5 °F 15.8 °F 86% 29.22 in 10.0 mi East 15.0 mph - N/A   Overcast
3:16 AM 19.4 °F 5.5 °F 15.8 °F 86% 29.23 in 10.0 mi East 15.0 mph - N/A   Overcast
3:36 AM 19.4 °F 5.0 °F 12.2 °F 74% 29.23 in 10.0 mi ENE 16.1 mph - N/A   Overcast
3:56 AM 19.4 °F 5.5 °F 12.2 °F 74% 29.23 in 10.0 mi ENE 15.0 mph - N/A   Overcast
4:16 AM 19.4 °F 6.0 °F 12.2 °F 74% 29.22 in 10.0 mi ENE 13.8 mph - N/A   Overcast
4:36 AM 17.6 °F 3.2 °F 12.2 °F 79% 29.22 in 10.0 mi ENE 15.0 mph - N/A   Overcast
4:56 AM 19.4 °F 5.5 °F 12.2 °F 74% 29.22 in 10.0 mi ENE 15.0 mph - N/A   Overcast
5:16 AM 17.6 °F 3.2 °F 12.2 °F 79% 29.22 in 10.0 mi ENE 15.0 mph - N/A   Overcast
5:36 AM 17.6 °F 3.2 °F 14.0 °F 86% 29.23 in 10.0 mi ENE 15.0 mph - N/A   Overcast
5:56 AM 17.6 °F 3.2 °F 12.2 °F 79% 29.23 in 10.0 mi ENE 15.0 mph - N/A   Overcast
6:16 AM 17.6 °F 3.7 °F 12.2 °F 79% 29.23 in 10.0 mi ENE 13.8 mph - N/A   Overcast
6:36 AM 17.6 °F 3.2 °F 12.2 °F 79% 29.23 in 10.0 mi ENE 15.0 mph - N/A   Overcast
6:56 AM 17.6 °F 3.7 °F 12.2 °F 79% 29.23 in 10.0 mi ENE 13.8 mph - N/A   Overcast
7:16 AM 17.6 °F 3.7 °F 12.2 °F 79% 29.23 in 10.0 mi ENE 13.8 mph - N/A   Overcast
7:36 AM 17.6 °F 3.2 °F 12.2 °F 79% 29.24 in 10.0 mi ENE 15.0 mph - N/A   Overcast
7:56 AM 17.6 °F 3.2 °F 12.2 °F 79% 29.24 in 10.0 mi ENE 15.0 mph - N/A   Overcast
8:16 AM 17.6 °F 3.2 °F 12.2 °F 79% 29.24 in 10.0 mi ENE 15.0 mph - N/A   Mostly Cloudy
8:36 AM 17.6 °F 2.2 °F 10.4 °F 73% 29.25 in 10.0 mi ENE 17.3 mph 21.9 mph N/A   Overcast
8:56 AM 17.6 °F 2.7 °F 12.2 °F 79% 29.25 in 10.0 mi ENE 16.1 mph - N/A   Overcast
9:16 AM 17.6 °F 2.2 °F 10.4 °F 73% 29.26 in 10.0 mi ENE 17.3 mph - N/A   Overcast
9:36 AM 17.6 °F 1.7 °F 12.2 °F 79% 29.26 in 10.0 mi ENE 18.4 mph - N/A   Overcast
9:56 AM 17.6 °F 2.2 °F 12.2 °F 79% 29.26 in 10.0 mi ENE 17.3 mph - N/A   Overcast
10:16 AM 17.6 °F 2.7 °F 12.2 °F 79% 29.27 in 10.0 mi ENE 16.1 mph - N/A   Overcast
10:36 AM 17.6 °F 3.2 °F 10.4 °F 73% 29.28 in 10.0 mi ENE 15.0 mph - N/A   Overcast
10:56 AM 17.6 °F 2.2 °F 10.4 °F 73% 29.28 in 10.0 mi ENE 17.3 mph - N/A   Overcast
11:16 AM 17.6 °F 2.2 °F 10.4 °F 73% 29.29 in 10.0 mi ENE 17.3 mph - N/A   Mostly Cloudy
11:36 AM 17.6 °F 2.2 °F 10.4 °F 73% 29.29 in 10.0 mi ENE 17.3 mph - N/A   Mostly Cloudy
11:56 AM 17.6 °F 1.7 °F 10.4 °F 73% 29.29 in 10.0 mi ENE 18.4 mph - N/A   Mostly Cloudy
12:16 PM 17.6 °F 2.7 °F 10.4 °F 73% 29.29 in 10.0 mi ENE 16.1 mph - N/A   Overcast
12:36 PM 17.6 °F 3.2 °F 10.4 °F 73% 29.30 in 10.0 mi ENE 15.0 mph - N/A   Overcast
12:56 PM 15.8 °F -0.6 °F 10.4 °F 79% 29.30 in 10.0 mi ENE 18.4 mph - N/A   Overcast
1:16 PM 15.8 °F -0.2 °F 10.4 °F 79% 29.31 in 10.0 mi ENE 17.3 mph - N/A   Mostly Cloudy
1:36 PM 15.8 °F -0.6 °F 10.4 °F 79% 29.31 in 10.0 mi ENE 18.4 mph - N/A   Scattered Clouds
1:56 PM 15.8 °F -0.2 °F 12.2 °F 86% 29.31 in 10.0 mi ENE 17.3 mph - N/A   Partly Cloudy
2:16 PM 15.8 °F 0.3 °F 10.4 °F 79% 29.32 in 10.0 mi ENE 16.1 mph - N/A   Clear
2:36 PM 15.8 °F -0.2 °F 10.4 °F 79% 29.32 in 10.0 mi ENE 17.3 mph - N/A   Clear
2:56 PM 15.8 °F -0.2 °F 10.4 °F 79% 29.32 in 10.0 mi ENE 17.3 mph - N/A   Scattered Clouds
3:16 PM 15.8 °F 0.3 °F 10.4 °F 79% 29.32 in 10.0 mi ENE 16.1 mph - N/A   Scattered Clouds
3:36 PM 15.8 °F 0.9 °F 10.4 °F 79% 29.32 in 10.0 mi ENE 15.0 mph - N/A   Mostly Cloudy
3:56 PM 15.8 °F 0.3 °F 10.4 °F 79% 29.32 in 10.0 mi ENE 16.1 mph - N/A   Mostly Cloudy
4:36 PM 17.6 °F 2.7 °F 12.2 °F 79% 29.33 in 10.0 mi ENE 16.1 mph - N/A   Overcast
4:56 PM 17.6 °F 2.7 °F 12.2 °F 79% 29.33 in 10.0 mi ENE 16.1 mph - N/A   Overcast
5:16 PM 17.6 °F 3.2 °F 14.0 °F 86% 29.33 in 10.0 mi ENE 15.0 mph - N/A   Overcast
5:36 PM 19.4 °F 5.0 °F 14.0 °F 80% 29.34 in 10.0 mi ENE 16.1 mph - N/A   Overcast
5:56 PM 19.4 °F 4.5 °F 15.8 °F 86% 29.34 in 5.0 mi ENE 17.3 mph - N/A   Overcast
6:16 PM 19.4 °F 5.5 °F 15.8 °F 86% 29.35 in 10.0 mi ENE 15.0 mph - N/A   Overcast
6:36 PM 19.4 °F 5.5 °F 15.8 °F 86% 29.35 in 8.0 mi ENE 15.0 mph - N/A   Overcast
6:56 PM 17.6 °F 3.7 °F 14.0 °F 86% 29.35 in 9.0 mi ENE 13.8 mph - N/A   Overcast
7:16 PM 17.6 °F 4.3 °F 15.8 °F 93% 29.35 in 10.0 mi ENE 12.7 mph - N/A   Overcast
7:36 PM 17.6 °F 3.7 °F 14.0 °F 86% 29.36 in 10.0 mi ENE 13.8 mph - N/A   Overcast
7:56 PM 17.6 °F 5.0 °F 14.0 °F 86% 29.36 in 10.0 mi ENE 11.5 mph - N/A   Overcast
8:16 PM 17.6 °F 5.0 °F 14.0 °F 86% 29.37 in 5.0 mi ENE 11.5 mph - N/A   Overcast
8:36 PM 17.6 °F 5.7 °F 14.0 °F 86% 29.37 in 2.0 mi East 10.4 mph - N/A   Overcast
8:56 PM 19.4 °F 8.6 °F 15.8 °F 86% 29.38 in 4.0 mi East 9.2 mph - N/A   Overcast
9:16 PM 19.4 °F 7.9 °F 17.6 °F 93% 29.38 in 10.0 mi East 10.4 mph - N/A   Overcast
9:36 PM 19.4 °F 8.6 °F 17.6 °F 93% 29.39 in 10.0 mi ENE 9.2 mph - N/A   Overcast
9:56 PM 19.4 °F 9.5 °F 17.6 °F 93% 29.40 in 10.0 mi ENE 8.1 mph - N/A   Overcast
10:16 PM 19.4 °F 8.6 °F 15.8 °F 86% 29.40 in 10.0 mi ENE 9.2 mph - N/A   Overcast
10:36 PM 19.4 °F 9.5 °F 15.8 °F 86% 29.41 in 10.0 mi ENE 8.1 mph - N/A   Overcast
10:56 PM 19.4 °F 9.5 °F 17.6 °F 93% 29.42 in 10.0 mi ENE 8.1 mph - N/A   Overcast
11:16 PM 19.4 °F 7.9 °F 15.8 °F 86% 29.42 in 7.0 mi ENE 10.4 mph - N/A   Overcast
11:36 PM 19.4 °F 9.5 °F 15.8 °F 86% 29.42 in 9.0 mi ENE 8.1 mph - N/A   Overcast
11:56 PM 17.6 °F 8.2 °F 14.0 °F 86% 29.43 in 9.0 mi ENE 6.9 mph - N/A   Mostly Cloudy